[[{"header":{"parameterUnit":"m.s-1","parameterCategory":1,"la1":30.2991,"la2":30.254,"lo1":-89.0895,"lo2":-89.0444,"dy":0.0017,"dx":0.0017,"nx":28,"ny":28,"refTime":"2024-05-02T03:00:00:Z","depth":0,"parameterNumber":2,"parameterNumberName":"U-component_of_WINDS"},"data":[0,0,0,0,0,0,0,0,0,0,0,0,0,0,0,0,0,0,0,0,0,0,0,0,0,0,0,0,0,0,0,0,0,0,0,0,0,0,0,0,0,0,0,0,0,0,0,0,0,0,0,0,0,0,0,0,0,0,-3.1762,-3.1763,0,-3.1797,-3.1797,-3.1798,-3.1753,-3.1752,-3.175,-3.1749,-3.1782,-3.1785,-3.1787,0,0,0,0,0,0,0,0,0,0,0,0,0,-3.1657,-3.1659,-3.1762,-3.1763,-3.1763,-3.1797,-3.1797,-3.1798,-3.1754,-3.1752,-3.175,-3.1748,-3.1782,-3.1784,-3.1787,0,0,0,0,0,0,0,0,0,0,0,0,0,-3.1698,-3.166,-3.1762,-3.1745,-3.1744,-3.1797,-3.1797,-3.1798,-3.1754,-3.1752,-3.1749,-3.1747,-3.1781,-3.1784,-3.1788,-3.1858,0,0,-3.1799,-3.18,0,0,0,0,0,0,0,0,-3.1696,-3.1702,-3.1747,-3.1747,-3.1745,-3.1768,-3.1772,-3.1818,-3.1755,-3.175,-3.1749,-3.1746,-3.178,-3.1783,-3.1795,-3.186,-3.1861,-3.1799,-3.1801,-3.1803,-3.1804,0,0,0,0,0,0,0,-3.1693,-3.17,-3.1776,-3.1748,-3.1747,-3.1735,-3.1739,-3.1781,-3.1778,-3.175,-3.1747,-3.1752,-3.1779,-3.1791,-3.1795,-3.1862,-3.1799,-3.1802,-3.1804,-3.1806,-3.1985,-3.1988,0,0,0,0,0,0,-3.1692,-3.1698,-3.1775,-3.1777,-3.1714,-3.1739,-3.1743,-3.1763,-3.1777,-3.1777,-3.1754,-3.175,-3.1787,-3.1791,-3.1796,-3.1879,-3.1803,-3.1806,-3.1808,-3.1983,-3.1986,-3.1989,0,0,0,0,0,0,-3.169,-3.17,-3.1773,-3.1737,-3.1745,-3.1744,-3.1767,-3.1765,-3.1778,-3.178,-3.1779,-3.1768,-3.1785,-3.1791,-3.1843,-3.1879,-3.1808,-3.1811,-3.198,-3.1984,-3.1987,-3.2045,0,0,0,0,0,0,-3.1687,-3.1699,-3.1726,-3.1738,-3.1747,-3.182,-3.1769,-3.1768,-3.1785,-3.178,-3.1793,-3.1793,-3.1783,-3.1838,-3.1847,-3.1883,-3.1814,-3.1976,-3.1981,-3.1986,-3.204,-3.205,-3.2059,0,0,0,0,0,-3.1684,-3.1741,-3.1728,-3.1737,-3.1781,-3.1822,-3.1828,-3.1816,-3.1788,-3.1815,-3.1816,-3.1792,-3.1874,-3.1844,-3.1853,-3.1891,-3.1974,-3.198,-3.1986,-3.2035,-3.2048,-3.2059,0,0,0,0,0,0,-3.1733,-3.1742,-3.1728,-3.179,-3.1806,-3.1815,-3.1848,-3.1831,-3.1854,-3.1848,-3.1833,-3.1836,-3.1891,-3.1896,-3.1862,-3.196,-3.1919,-3.1927,-3.1954,-3.1966,-3.1976,-3.1973,-3.1817,0,0,0,0,0,-3.1751,-3.1784,-3.179,-3.1845,-3.1854,-3.185,-3.1867,-3.1857,-3.1873,-3.1879,-3.1884,-3.1899,-3.1928,-3.1948,-3.1975,-3.2041,-3.2043,-3.2072,-3.2082,-3.209,-3.2096,-3.2131,-3.2143,-3.2008,-3.2008,-3.2008,0,0,-3.1789,-3.1798,-3.182,-3.1855,-3.1866,-3.19,-3.1856,-3.1894,-3.1918,-3.1884,-3.1933,-3.1938,-3.1954,-3.2013,-3.2039,-3.2019,-3.2134,-3.2097,-3.2104,-3.2106,-3.2138,-3.2151,-3.2162,-3.2012,-3.2011,-3.2011,0,0,-3.1875,-3.1886,-3.1932,-3.1944,-3.1962,-3.1959,-3.197,-3.1982,-3.1983,-3.2033,-3.2008,-3.2037,-3.2088,-3.21,-3.2113,-3.2204,-3.2183,-3.2213,-3.2264,-3.2298,-3.2309,-3.2318,-3.235,-3.2361,-3.222,-3.2221,-3.2221,0,-3.1919,-3.197,-3.1958,-3.1998,-3.2014,-3.1985,-3.2032,-3.2044,-3.2069,-3.208,-3.2058,-3.2121,-3.213,-3.2191,-3.2213,-3.2225,-3.2236,-3.2211,-3.2308,-3.2318,-3.2326,-3.2356,-3.2368,-3.2224,-3.2224,-3.2223,-3.2223,0,-3.2023,-3.2059,-3.2094,-3.212,-3.214,-3.2183,-3.2177,-3.2198,-3.2187,-3.2186,-3.2236,-3.2246,-3.2274,-3.2289,-3.2278,-3.2348,-3.2335,-3.2311,-3.227,-3.2343,-3.237,-3.2382,-3.2229,-3.2228,-3.2227,-3.2226,0,0,-3.214,-3.2159,-3.2172,-3.2183,-3.22,-3.2227,-3.2269,-3.2297,-3.2315,-3.2334,-3.2368,-3.2412,-3.2389,-3.2404,-3.2394,-3.2424,-3.2495,-3.2396,-3.2396,-3.2413,-3.2572,-3.2589,-3.2603,-3.2481,-3.2484,-3.2485,-3.257,0,-3.2225,-3.2297,-3.2288,-3.2357,-3.2389,-3.2363,-3.2399,-3.2413,-3.2414,-3.2441,-3.2442,-3.2473,-3.2442,-3.245,-3.2479,-3.248,-3.2526,-3.2474,-3.2511,-3.2513,-3.2507,-3.2617,-3.2635,-3.2715,-3.2581,-3.2583,-3.2584,0,-3.2334,-3.2357,-3.2429,-3.2441,-3.2454,-3.2487,-3.2512,-3.2539,-3.2554,-3.2552,-3.2569,-3.2554,-3.2595,-3.2555,-3.261,-3.2575,-3.259,-3.2593,-3.2596,-3.2598,-3.2552,-3.2621,-3.274,-3.2752,-3.2601,-3.26,-3.2599,0,-3.241,-3.2459,-3.2509,-3.2519,-3.2535,-3.2558,-3.2566,-3.2579,-3.2597,-3.2618,-3.2629,-3.2656,-3.267,-3.269,-3.2682,-3.2653,-3.2739,-3.2698,-3.2738,-3.2738,-3.2756,-3.2754,-3.2878,-3.2768,-3.2768,-3.2768,-3.2767,0,-3.2505,-3.255,-3.2543,-3.2573,-3.2623,-3.2612,-3.2661,-3.2665,-3.2677,-3.2707,-3.2687,-3.2715,-3.2704,-3.2732,-3.2726,-3.2772,-3.2779,-3.2778,-3.2776,-3.2779,-3.2779,-3.2788,-3.2781,-3.2771,-3.277,-3.2769,-3.2769,0,-3.2599,-3.2596,-3.2648,-3.2659,-3.2662,-3.2698,-3.2707,-3.2735,-3.2735,-3.2773,-3.2782,-3.2781,-3.2812,-3.2807,-3.2842,-3.2838,-3.2895,-3.2887,-3.289,-3.2888,-3.2928,-3.2923,-3.306,-3.3077,-3.2957,-3.2958,-3.2959,0,-3.2659,-3.2693,-3.2708,-3.2727,-3.2736,-3.2767,-3.2785,-3.2775,-3.2794,-3.2815,-3.284,-3.287,-3.2893,-3.2945,-3.2947,-3.2973,-3.2965,-3.3011,-3.2968,-3.2971,-3.2964,-3.2961,-3.2964,-3.3019,-3.302,-3.3021,-3.3022,0,-3.2766,-3.2763,-3.2789,-3.2816,-3.2838,-3.2858,-3.2876,-3.2893,-3.2885,-3.2907,-3.294,-3.2958,-3.2994,-3.3023,-3.3048,-3.3055,-3.3037,-3.3036,-3.3046,-3.3049,-3.3049,-3.3048,-3.2912,-3.3032,-3.3031,-3.303,-3.303,-3.3029,-3.2843,-3.2872,-3.2887,-3.2917,-3.293,-3.2948,-3.2974,-3.2978,-3.3004,-3.3033,-3.3026,-3.3062,-3.3077,-3.3108,-3.3118,-3.3146,-3.3129,-3.3144,-3.3148,-3.3151,-3.3156,-3.3046,-3.3151,-3.315,-3.315,-3.315,-3.315,0,-3.2948,-3.2957,-3.2985,-3.3011,-3.3035,-3.3017,-3.3036,-3.3057,-3.3089,-3.3104,-3.3128,-3.3165,-3.3193,-3.3198,-3.3225,-3.3247,-3.3239,-3.3254,-3.3251,-3.3253,-3.317,-3.3158,-3.326,-3.326,-3.326,-3.326,-3.3259,-3.3259,-3.3005,-3.3053,-3.3052,-3.3105,-3.3113,-3.3149,-3.3161,-3.3177,-3.3189,-3.3231,-3.3255,-3.3258,-3.3269,-3.3297,-3.3322,-3.3323,-3.3333,-3.3351,-3.3348,-3.327,-3.3259,-3.3249,-3.3237,-3.3354,-3.3354,-3.3429,-3.3429,-3.343]},{"header":{"parameterUnit":"m.s-1","parameterCategory":1,"la1":30.2991,"la2":30.254,"lo1":-89.0895,"lo2":-89.0444,"dy":0.0017,"dx":0.0017,"nx":28,"ny":28,"refTime":"2024-05-02T03:00:00:Z","depth":0,"parameterNumber":3,"parameterNumberName":"V-component_of_WINDS"},"data":[0,0,0,0,0,0,0,0,0,0,0,0,0,0,0,0,0,0,0,0,0,0,0,0,0,0,0,0,0,0,0,0,0,0,0,0,0,0,0,0,0,0,0,0,0,0,0,0,0,0,0,0,0,0,0,0,0,0,2.55,2.55,0,2.5547,2.5548,2.5548,2.5558,2.5557,2.5557,2.5557,2.5603,2.5604,2.5606,0,0,0,0,0,0,0,0,0,0,0,0,0,2.5415,2.5417,2.5499,2.55,2.5501,2.5547,2.5548,2.5548,2.5558,2.5557,2.5557,2.5557,2.5602,2.5604,2.5606,0,0,0,0,0,0,0,0,0,0,0,0,0,2.5456,2.5417,2.5499,2.5511,2.5513,2.5547,2.5548,2.5548,2.5558,2.5557,2.5557,2.5556,2.5602,2.5604,2.5606,2.5631,0,0,2.5613,2.5614,0,0,0,0,0,0,0,0,2.5454,2.5459,2.5509,2.551,2.5512,2.5546,2.5535,2.5576,2.5558,2.5541,2.5557,2.5556,2.5584,2.5588,2.5598,2.5633,2.5635,2.5613,2.5615,2.5616,2.5617,0,0,0,0,0,0,0,2.5451,2.5457,2.5518,2.551,2.5512,2.5513,2.5519,2.5543,2.5565,2.5542,2.5543,2.5549,2.5585,2.5596,2.5599,2.5636,2.5613,2.5615,2.5617,2.5618,2.5695,2.5695,0,0,0,0,0,0,2.5446,2.5455,2.5517,2.552,2.5481,2.5515,2.5521,2.5536,2.5564,2.5568,2.5549,2.5549,2.5592,2.5596,2.5601,2.5632,2.5616,2.5618,2.5619,2.5694,2.5695,2.5695,0,0,0,0,0,0,2.5444,2.5452,2.5515,2.5487,2.5496,2.5517,2.5534,2.5537,2.5548,2.557,2.5573,2.5556,2.5592,2.5597,2.5624,2.5634,2.5619,2.5621,2.5693,2.5694,2.5695,2.5695,0,0,0,0,0,0,2.5442,2.5451,2.5461,2.5488,2.5497,2.5538,2.5534,2.5538,2.5552,2.5552,2.5577,2.5581,2.5592,2.562,2.5626,2.5637,2.5623,2.5692,2.5694,2.5695,2.5694,2.5696,2.5697,0,0,0,0,0,2.5439,2.5458,2.5462,2.5469,2.551,2.5538,2.5544,2.5556,2.5553,2.5563,2.5577,2.558,2.5632,2.5623,2.563,2.5641,2.5692,2.5693,2.5695,2.5693,2.5695,2.5697,0,0,0,0,0,0,2.5431,2.5462,2.5466,2.5495,2.5514,2.554,2.5553,2.5558,2.5578,2.5577,2.5591,2.5597,2.5623,2.5634,2.5624,2.5667,2.5662,2.5664,2.5658,2.566,2.5662,2.5658,2.5625,0,0,0,0,0,2.5433,2.5454,2.548,2.5503,2.5512,2.5531,2.5544,2.5552,2.5572,2.558,2.5596,2.5615,2.5635,2.5649,2.5669,2.5696,2.5701,2.5707,2.5709,2.571,2.5712,2.5728,2.573,2.57,2.57,2.57,0,0,2.5437,2.5456,2.5469,2.5502,2.5518,2.5538,2.5538,2.556,2.5575,2.5583,2.5609,2.5622,2.5644,2.5671,2.5683,2.5681,2.5722,2.5712,2.5712,2.5714,2.5729,2.5732,2.5735,2.5701,2.5701,2.5701,0,0,2.5455,2.5471,2.5493,2.5509,2.5534,2.5546,2.5551,2.5577,2.5586,2.5613,2.5619,2.5637,2.5672,2.5688,2.57,2.5724,2.5728,2.573,2.5738,2.5753,2.5756,2.5758,2.5766,2.5769,2.5733,2.5733,2.5733,0,2.5456,2.5488,2.5503,2.5525,2.5539,2.5549,2.557,2.5585,2.5614,2.5623,2.5621,2.5666,2.5681,2.5712,2.5718,2.5728,2.5734,2.5727,2.5754,2.5757,2.5759,2.5767,2.577,2.5733,2.5733,2.5733,2.5733,0,2.5489,2.5511,2.5525,2.5555,2.5571,2.5592,2.561,2.5624,2.5631,2.5643,2.5671,2.5689,2.5714,2.5722,2.5728,2.5754,2.5752,2.5752,2.5746,2.5762,2.577,2.5773,2.5733,2.5733,2.5733,2.5733,0,0,2.5503,2.5541,2.5545,2.5559,2.5587,2.5604,2.5626,2.5651,2.5663,2.5683,2.5702,2.5731,2.5732,2.5746,2.5754,2.5767,2.5786,2.5766,2.5766,2.5769,2.5815,2.5815,2.5818,2.5788,2.5789,2.579,2.5813,0,2.5524,2.5564,2.5578,2.5611,2.5632,2.5642,2.5661,2.568,2.5692,2.5711,2.5724,2.5745,2.5744,2.5753,2.5766,2.5781,2.5795,2.5779,2.5805,2.5806,2.5799,2.5823,2.5823,2.5844,2.5816,2.5817,2.5817,0,2.5554,2.5575,2.5611,2.5637,2.5646,2.5663,2.5687,2.5706,2.5727,2.5735,2.5751,2.5759,2.5782,2.5776,2.5807,2.5796,2.5807,2.5816,2.5817,2.582,2.5812,2.5826,2.5851,2.5854,2.5822,2.5822,2.5822,0,2.556,2.5598,2.5625,2.5636,2.5667,2.5679,2.5692,2.5713,2.5727,2.5748,2.5758,2.578,2.5793,2.581,2.5823,2.5817,2.5853,2.5848,2.586,2.586,2.5867,2.5866,2.5894,2.5874,2.5874,2.5874,2.5874,0,2.5582,2.5604,2.5628,2.5644,2.5669,2.5684,2.5707,2.5721,2.574,2.5759,2.5768,2.5785,2.5802,2.5821,2.5831,2.5856,2.5861,2.5868,2.587,2.5867,2.5866,2.5874,2.5873,2.5875,2.5875,2.5875,2.5875,0,2.5594,2.5611,2.5641,2.5668,2.5675,2.5692,2.5715,2.5731,2.5744,2.5767,2.5773,2.5794,2.5817,2.5832,2.5861,2.5868,2.5895,2.5897,2.5888,2.5889,2.59,2.5899,2.5934,2.594,2.5916,2.5916,2.5917,0,2.5607,2.5624,2.5653,2.5667,2.5681,2.5702,2.5717,2.5733,2.5748,2.5774,2.5787,2.5811,2.583,2.5867,2.5883,2.5906,2.5908,2.5919,2.5912,2.5908,2.5908,2.5907,2.5909,2.592,2.592,2.5921,2.5921,0,2.5628,2.5636,2.5658,2.5682,2.57,2.572,2.574,2.575,2.577,2.5786,2.581,2.5826,2.5856,2.5879,2.5903,2.5916,2.5922,2.5923,2.5927,2.5924,2.5918,2.5921,2.5891,2.5922,2.5922,2.5922,2.5922,2.5922,2.5641,2.5656,2.568,2.5704,2.5721,2.5739,2.5756,2.5771,2.5792,2.5819,2.5827,2.5852,2.5873,2.5906,2.5919,2.5939,2.5937,2.5943,2.5944,2.5946,2.5946,2.5915,2.5943,2.5943,2.5943,2.5943,2.5943,0,2.5662,2.5678,2.57,2.5728,2.5747,2.5752,2.5774,2.5789,2.5812,2.5831,2.5851,2.5879,2.5902,2.5921,2.5944,2.5956,2.5959,2.5962,2.5961,2.5964,2.5945,2.594,2.5959,2.5959,2.5959,2.5959,2.5959,2.5959,2.5676,2.5703,2.5714,2.5749,2.5764,2.579,2.5802,2.5819,2.5835,2.5867,2.5886,2.5899,2.5918,2.5943,2.5964,2.5969,2.5977,2.5979,2.5984,2.5967,2.5965,2.5963,2.5958,2.5981,2.5981,2.6001,2.6001,2.6001]}]]